"Sample Date","Sample Time","Sensor Name","Sample Value","Units","Flow Rate","Sample Interval","Sample Volume","Laser Status","Number Channels","Micron Size 0","Counts/Channel 0","Micron Size 1","Counts/Channel 1","Micron Size 2","Counts/Channel 2","Micron Size 3","Counts/Channel 3","Micron Size 4","Counts/Channel 4","Micron Size 5","Counts/Channel 5","Micron Size 6","Counts/Channel 6","Micron Size 7","Counts/Channel 7","Micron Size 8","Counts/Channel 8","Micron Size 9","Counts/Channel 9","Micron Size 10","Counts/Channel 10","Micron Size 11","Counts/Channel 11","Micron Size 12","Counts/Channel 12","Micron Size 13","Counts/Channel 13","Micron Size 14","Counts/Channel 14","Micron Size 15","Counts/Channel 15","Micron Size 16","Counts/Channel 16","Micron Size 17","Counts/Channel 17","Micron Size 18","Counts/Channel 18","Micron Size 19","Counts/Channel 19","Micron Size 20","Counts/Channel 20","Micron Size 21","Counts/Channel 21","Micron Size 22","Counts/Channel 22","Micron Size 23","Counts/Channel 23","Micron Size 24","Counts/Channel 24","Micron Size 25","Counts/Channel 25","Micron Size 26","Counts/Channel 26","Micron Size 27","Counts/Channel 27","Micron Size 28","Counts/Channel 28","Micron Size 29","Counts/Channel 29","Micron Size 30","Counts/Channel 30","Micron Size 31","Counts/Channel 31"
"07/02/06","05:00:03","AMMA06",67394.000,"cc",28351.836,6.00,2835.184,1,6,0.100,30288.000,0.200,28437.000,0.300,6285.000,0.500,1366.000,1.000,1018.000,5.000,0
"07/02/06","05:00:09","AMMA06",66836.000,"cc",28347.010,6.00,2834.701,1,6,0.100,29807.000,0.200,28550.000,0.300,6245.000,0.500,1327.000,1.000,907.000,5.000,0
"07/02/06","05:00:15","AMMA06",66944.000,"cc",28288.123,6.00,2828.813,1,6,0.100,30055.000,0.200,28510.000,0.300,6149.000,0.500,1311.000,1.000,918.000,5.000,1.000
"07/02/06","05:00:21","AMMA06",66635.000,"cc",28241.209,6.00,2824.121,1,6,0.100,29944.000,0.200,28296.000,0.300,6091.000,0.500,1391.000,1.000,913.000,5.000,0
"07/02/06","05:00:27","AMMA06",67032.000,"cc",28332.807,6.00,2833.281,1,6,0.100,30087.000,0.200,28470.000,0.300,6191.000,0.500,1351.000,1.000,933.000,5.000,0
"07/02/06","05:00:33","AMMA06",67658.000,"cc",28309.467,6.00,2830.947,1,6,0.100,30296.000,0.200,28987.000,0.300,6117.000,0.500,1318.000,1.000,940.000,5.000,0
"07/02/06","05:00:39","AMMA06",67568.000,"cc",28384.125,6.00,2838.413,1,6,0.100,30592.000,0.200,28595.000,0.300,6080.000,0.500,1328.000,1.000,972.000,5.000,1.000
"07/02/06","05:00:45","AMMA06",66487.000,"cc",28319.481,6.00,2831.948,1,6,0.100,29728.000,0.200,28191.000,0.300,6178.000,0.500,1400.000,1.000,989.000,5.000,1.000
"07/02/06","05:00:51","AMMA06",67013.000,"cc",28304.352,6.00,2830.435,1,6,0.100,30174.000,0.200,28439.000,0.300,6091.000,0.500,1317.000,1.000,992.000,5.000,0
"07/02/06","05:00:57","AMMA06",67113.000,"cc",28322.291,6.00,2832.229,1,6,0.100,30189.000,0.200,28596.000,0.300,6037.000,0.500,1323.000,1.000,966.000,5.000,2.000
"07/02/06","05:01:03","AMMA06",67555.000,"cc",28325.693,6.00,2832.570,1,6,0.100,30389.000,0.200,28644.000,0.300,6224.000,0.500,1368.000,1.000,930.000,5.000,0
"07/02/06","05:01:09","AMMA06",66914.000,"cc",28297.777,6.00,2829.778,1,6,0.100,30146.000,0.200,28431.000,0.300,6081.000,0.500,1321.000,1.000,934.000,5.000,1.000
"07/02/06","05:01:15","AMMA06",67482.000,"cc",28334.607,6.00,2833.461,1,6,0.100,30492.000,0.200,28608.000,0.300,6049.000,0.500,1376.000,1.000,956.000,5.000,1.000
"07/02/06","05:01:21","AMMA06",67043.000,"cc",28379.674,6.00,2837.968,1,6,0.100,30462.000,0.200,28119.000,0.300,6108.000,0.500,1392.000,1.000,962.000,5.000,0
"07/02/06","05:01:27","AMMA06",67017.000,"cc",28312.279,6.00,2831.228,1,6,0.100,30187.000,0.200,28395.000,0.300,6151.000,0.500,1300.000,1.000,984.000,5.000,0
"07/02/06","05:01:33","AMMA06",67127.000,"cc",28264.139,6.00,2826.414,1,6,0.100,30192.000,0.200,28543.000,0.300,6115.000,0.500,1343.000,1.000,933.000,5.000,1.000
"07/02/06","05:01:39","AMMA06",67119.000,"cc",28331.488,6.00,2833.149,1,6,0.100,30301.000,0.200,28247.000,0.300,6198.000,0.500,1409.000,1.000,962.000,5.000,2.000
"07/02/06","05:01:45","AMMA06",66942.000,"cc",28292.664,6.00,2829.267,1,6,0.100,29987.000,0.200,28382.000,0.300,6160.000,0.500,1340.000,1.000,1072.000,5.000,1.000
"07/02/06","05:01:51","AMMA06",67089.000,"cc",28296.934,6.00,2829.694,1,6,0.100,30368.000,0.200,28363.000,0.300,6068.000,0.500,1337.000,1.000,953.000,5.000,0
"07/02/06","05:01:57","AMMA06",67278.000,"cc",28302.549,6.00,2830.255,1,6,0.100,30443.000,0.200,28323.000,0.300,6163.000,0.500,1409.000,1.000,940.000,5.000,0
"07/02/06","05:02:03","AMMA06",67789.000,"cc",28372.787,6.00,2837.279,1,6,0.100,30928.000,0.200,28318.000,0.300,6222.000,0.500,1380.000,1.000,941.000,5.000,0
"07/02/06","05:02:09","AMMA06",67695.000,"cc",28334.023,6.00,2833.403,1,6,0.100,30642.000,0.200,28644.000,0.300,6109.000,0.500,1316.000,1.000,984.000,5.000,0
"07/02/06","05:02:15","AMMA06",67689.000,"cc",28273.256,6.00,2827.326,1,6,0.100,30652.000,0.200,28557.000,0.300,6209.000,0.500,1307.000,1.000,963.000,5.000,1.000
"07/02/06","05:02:21","AMMA06",67242.000,"cc",28296.381,6.00,2829.638,1,6,0.100,30501.000,0.200,28460.000,0.300,6036.000,0.500,1297.000,1.000,947.000,5.000,1.000
"07/02/06","05:02:27","AMMA06",67843.000,"cc",28312.080,6.00,2831.208,1,6,0.100,30898.000,0.200,28415.000,0.300,6214.000,0.500,1366.000,1.000,950.000,5.000,0
"07/02/06","05:02:33","AMMA06",67703.000,"cc",28327.039,6.00,2832.704,1,6,0.100,30847.000,0.200,28437.000,0.300,6159.000,0.500,1351.000,1.000,908.000,5.000,1.000
"07/02/06","05:02:39","AMMA06",67155.000,"cc",28358.346,6.00,2835.835,1,6,0.100,30504.000,0.200,28175.000,0.300,6179.000,0.500,1335.000,1.000,962.000,5.000,0
"07/02/06","05:02:45","AMMA06",67026.000,"cc",28297.104,6.00,2829.710,1,6,0.100,30674.000,0.200,28031.000,0.300,6024.000,0.500,1353.000,1.000,943.000,5.000,1.000
"07/02/06","05:02:51","AMMA06",66920.000,"cc",28312.065,6.00,2831.207,1,6,0.100,30599.000,0.200,28179.000,0.300,5914.000,0.500,1323.000,1.000,904.000,5.000,1.000
"07/02/06","05:02:57","AMMA06",67536.000,"cc",28263.604,6.00,2826.361,1,6,0.100,30834.000,0.200,28314.000,0.300,6173.000,0.500,1306.000,1.000,908.000,5.000,1.000
"07/02/06","05:03:03","AMMA06",66836.000,"cc",28317.289,6.00,2831.729,1,6,0.100,30387.000,0.200,28189.000,0.300,6005.000,0.500,1331.000,1.000,924.000,5.000,0
"07/02/06","05:03:09","AMMA06",67192.000,"cc",28312.623,6.00,2831.263,1,6,0.100,30645.000,0.200,28343.000,0.300,5921.000,0.500,1378.000,1.000,904.000,5.000,1.000
"07/02/06","05:03:15","AMMA06",66993.000,"cc",28334.229,6.00,2833.423,1,6,0.100,30656.000,0.200,28184.000,0.300,5995.000,0.500,1295.000,1.000,862.000,5.000,1.000
"07/02/06","05:03:21","AMMA06",67294.000,"cc",28293.627,6.00,2829.363,1,6,0.100,30930.000,0.200,28192.000,0.300,5903.000,0.500,1331.000,1.000,938.000,5.000,0
"07/02/06","05:03:27","AMMA06",66775.000,"cc",28348.793,6.00,2834.879,1,6,0.100,30499.000,0.200,28111.000,0.300,5905.000,0.500,1327.000,1.000,933.000,5.000,0
"07/02/06","05:03:33","AMMA06",66658.000,"cc",28328.941,6.00,2832.894,1,6,0.100,30718.000,0.200,27737.000,0.300,5859.000,0.500,1352.000,1.000,992.000,5.000,0
"07/02/06","05:03:39","AMMA06",66982.000,"cc",28301.746,6.00,2830.175,1,6,0.100,30791.000,0.200,28024.000,0.300,5882.000,0.500,1358.000,1.000,927.000,5.000,0
"07/02/06","05:03:45","AMMA06",67473.000,"cc",28311.494,6.00,2831.150,1,6,0.100,30944.000,0.200,28308.000,0.300,5899.000,0.500,1368.000,1.000,954.000,5.000,0
"07/02/06","05:03:51","AMMA06",67053.000,"cc",28324.197,6.00,2832.420,1,6,0.100,30800.000,0.200,27905.000,0.300,6008.000,0.500,1362.000,1.000,977.000,5.000,1.000
"07/02/06","05:03:57","AMMA06",66843.000,"cc",28334.344,6.00,2833.435,1,6,0.100,30728.000,0.200,28048.000,0.300,5838.000,0.500,1332.000,1.000,896.000,5.000,1.000
"07/02/06","05:04:03","AMMA06",67003.000,"cc",28242.822,6.00,2824.283,1,6,0.100,31156.000,0.200,27689.000,0.300,5838.000,0.500,1384.000,1.000,936.000,5.000,0
"07/02/06","05:04:09","AMMA06",67021.000,"cc",28377.869,6.00,2837.787,1,6,0.100,31308.000,0.200,27636.000,0.300,5818.000,0.500,1359.000,1.000,899.000,5.000,1.000
"07/02/06","05:04:15","AMMA06",66845.000,"cc",28357.154,6.00,2835.716,1,6,0.100,30980.000,0.200,27870.000,0.300,5691.000,0.500,1372.000,1.000,932.000,5.000,0
"07/02/06","05:04:21","AMMA06",67010.000,"cc",28307.518,6.00,2830.752,1,6,0.100,30810.000,0.200,28248.000,0.300,5730.000,0.500,1344.000,1.000,876.000,5.000,2.000
"07/02/06","05:04:27","AMMA06",66873.000,"cc",28269.100,6.00,2826.910,1,6,0.100,31262.000,0.200,27746.000,0.300,5636.000,0.500,1321.000,1.000,907.000,5.000,1.000
"07/02/06","05:04:33","AMMA06",66962.000,"cc",28367.715,6.00,2836.772,1,6,0.100,31208.000,0.200,27748.000,0.300,5758.000,0.500,1322.000,1.000,925.000,5.000,1.000
"07/02/06","05:04:39","AMMA06",66289.000,"cc",28364.174,6.00,2836.418,1,6,0.100,31070.000,0.200,27463.000,0.300,5512.000,0.500,1349.000,1.000,895.000,5.000,0
"07/02/06","05:04:45","AMMA06",67070.000,"cc",28291.895,6.00,2829.190,1,6,0.100,31151.000,0.200,27959.000,0.300,5741.000,0.500,1363.000,1.000,856.000,5.000,0
"07/02/06","05:04:51","AMMA06",66479.000,"cc",28265.865,6.00,2826.587,1,6,0.100,30931.000,0.200,27632.000,0.300,5592.000,0.500,1387.000,1.000,937.000,5.000,0
"07/02/06","05:04:57","AMMA06",66853.000,"cc",28332.445,6.00,2833.245,1,6,0.100,30889.000,0.200,28069.000,0.300,5657.000,0.500,1372.000,1.000,866.000,5.000,0
"07/02/06","05:05:03","AMMA06",66861.000,"cc",28343.072,6.00,2834.307,1,6,0.100,31013.000,0.200,27828.000,0.300,5730.000,0.500,1371.000,1.000,919.000,5.000,0
"07/02/06","05:05:09","AMMA06",66569.000,"cc",28336.676,6.00,2833.668,1,6,0.100,30928.000,0.200,27729.000,0.300,5668.000,0.500,1306.000,1.000,936.000,5.000,2.000
"07/02/06","05:05:15","AMMA06",66519.000,"cc",28319.852,6.00,2831.985,1,6,0.100,30937.000,0.200,27666.000,0.300,5652.000,0.500,1341.000,1.000,922.000,5.000,1.000
"07/02/06","05:05:21","AMMA06",66478.000,"cc",28324.633,6.00,2832.463,1,6,0.100,30829.000,0.200,27772.000,0.300,5615.000,0.500,1378.000,1.000,884.000,5.000,0
"07/02/06","05:05:27","AMMA06",66588.000,"cc",28329.824,6.00,2832.983,1,6,0.100,30935.000,0.200,27654.000,0.300,5747.000,0.500,1329.000,1.000,923.000,5.000,0
"07/02/06","05:05:33","AMMA06",67046.000,"cc",28290.721,6.00,2829.072,1,6,0.100,31332.000,0.200,27545.000,0.300,5811.000,0.500,1429.000,1.000,929.000,5.000,0
"07/02/06","05:05:39","AMMA06",67014.000,"cc",28272.875,6.00,2827.288,1,6,0.100,31082.000,0.200,28085.000,0.300,5657.000,0.500,1272.000,1.000,917.000,5.000,1.000
"07/02/06","05:05:45","AMMA06",67118.000,"cc",28301.832,6.00,2830.183,1,6,0.100,31269.000,0.200,27782.000,0.300,5801.000,0.500,1348.000,1.000,918.000,5.000,0
"07/02/06","05:05:51","AMMA06",66787.000,"cc",28324.293,6.00,2832.429,1,6,0.100,30965.000,0.200,27861.000,0.300,5736.000,0.500,1338.000,1.000,887.000,5.000,0
"07/02/06","05:05:57","AMMA06",67534.000,"cc",28302.330,6.00,2830.233,1,6,0.100,31501.000,0.200,27887.000,0.300,5867.000,0.500,1329.000,1.000,949.000,5.000,1.000
"07/02/06","05:06:03","AMMA06",67586.000,"cc",28360.436,6.00,2836.044,1,6,0.100,31241.000,0.200,28171.000,0.300,5877.000,0.500,1339.000,1.000,957.000,5.000,1.000
"07/02/06","05:06:09","AMMA06",66546.000,"cc",28346.260,6.00,2834.626,1,6,0.100,30712.000,0.200,27808.000,0.300,5763.000,0.500,1300.000,1.000,963.000,5.000,0
"07/02/06","05:06:15","AMMA06",66908.000,"cc",28349.750,6.00,2834.975,1,6,0.100,31003.000,0.200,27716.000,0.300,5938.000,0.500,1320.000,1.000,931.000,5.000,0
"07/02/06","05:06:21","AMMA06",66784.000,"cc",28287.984,6.00,2828.799,1,6,0.100,30759.000,0.200,27876.000,0.300,5904.000,0.500,1306.000,1.000,939.000,5.000,0
"07/02/06","05:06:27","AMMA06",66912.000,"cc",28289.770,6.00,2828.977,1,6,0.100,30772.000,0.200,27914.000,0.300,5907.000,0.500,1350.000,1.000,967.000,5.000,2.000
"07/02/06","05:06:33","AMMA06",67046.000,"cc",28344.066,6.00,2834.407,1,6,0.100,30619.000,0.200,28210.000,0.300,5889.000,0.500,1331.000,1.000,996.000,5.000,1.000
"07/02/06","05:06:39","AMMA06",66581.000,"cc",28303.287,6.00,2830.329,1,6,0.100,30187.000,0.200,28185.000,0.300,5883.000,0.500,1349.000,1.000,976.000,5.000,1.000
"07/02/06","05:06:45","AMMA06",66594.000,"cc",28308.740,6.00,2830.874,1,6,0.100,30340.000,0.200,28035.000,0.300,5882.000,0.500,1378.000,1.000,958.000,5.000,1.000
"07/02/06","05:06:51","AMMA06",66348.000,"cc",28317.338,6.00,2831.734,1,6,0.100,30331.000,0.200,27744.000,0.300,6005.000,0.500,1339.000,1.000,929.000,5.000,0
"07/02/06","05:06:57","AMMA06",66524.000,"cc",28279.805,6.00,2827.981,1,6,0.100,30501.000,0.200,27815.000,0.300,5904.000,0.500,1346.000,1.000,956.000,5.000,2.000
"07/02/06","05:07:03","AMMA06",66928.000,"cc",28309.900,6.00,2830.990,1,6,0.100,30576.000,0.200,27975.000,0.300,6058.000,0.500,1332.000,1.000,987.000,5.000,0
"07/02/06","05:07:09","AMMA06",66713.000,"cc",28363.578,6.00,2836.358,1,6,0.100,30517.000,0.200,27910.000,0.300,5890.000,0.500,1416.000,1.000,980.000,5.000,0
"07/02/06","05:07:15","AMMA06",65986.000,"cc",28346.299,6.00,2834.630,1,6,0.100,30230.000,0.200,27751.000,0.300,5850.000,0.500,1271.000,1.000,883.000,5.000,1.000
"07/02/06","05:07:21","AMMA06",66054.000,"cc",28323.994,6.00,2832.400,1,6,0.100,30013.000,0.200,27750.000,0.300,5968.000,0.500,1377.000,1.000,945.000,5.000,1.000
"07/02/06","05:07:27","AMMA06",65817.000,"cc",28287.379,6.00,2828.738,1,6,0.100,30144.000,0.200,27596.000,0.300,5800.000,0.500,1314.000,1.000,962.000,5.000,1.000
"07/02/06","05:07:33","AMMA06",68098.000,"cc",28324.693,6.00,2832.470,1,6,0.100,31699.000,0.200,28190.000,0.300,6076.000,0.500,1290.000,1.000,842.000,5.000,1.000
"07/02/06","05:07:39","AMMA06",68539.000,"cc",28305.600,6.00,2830.560,1,6,0.100,32114.000,0.200,28094.000,0.300,6109.000,0.500,1283.000,1.000,938.000,5.000,1.000
"07/02/06","05:07:45","AMMA06",68427.000,"cc",28346.606,6.00,2834.661,1,6,0.100,32051.000,0.200,28104.000,0.300,5904.000,0.500,1364.000,1.000,1004.000,5.000,0
"07/02/06","05:07:51","AMMA06",69313.000,"cc",28331.102,6.00,2833.110,1,6,0.100,32431.000,0.200,28584.000,0.300,6008.000,0.500,1381.000,1.000,909.000,5.000,0
"07/02/06","05:07:57","AMMA06",69162.000,"cc",28285.473,6.00,2828.547,1,6,0.100,32418.000,0.200,28300.000,0.300,6051.000,0.500,1375.000,1.000,1017.000,5.000,1.000
"07/02/06","05:08:03","AMMA06",69110.000,"cc",28331.035,6.00,2833.104,1,6,0.100,32571.000,0.200,28084.000,0.300,6155.000,0.500,1364.000,1.000,936.000,5.000,0
"07/02/06","05:08:09","AMMA06",69174.000,"cc",28354.106,6.00,2835.411,1,6,0.100,32237.000,0.200,28434.000,0.300,6098.000,0.500,1384.000,1.000,1021.000,5.000,0
"07/02/06","05:08:15","AMMA06",69386.000,"cc",28328.318,6.00,2832.832,1,6,0.100,32505.000,0.200,28377.000,0.300,6180.000,0.500,1374.000,1.000,950.000,5.000,0
"07/02/06","05:08:21","AMMA06",69411.000,"cc",28255.111,6.00,2825.511,1,6,0.100,32620.000,0.200,28168.000,0.300,6203.000,0.500,1410.000,1.000,1009.000,5.000,1.000
"07/02/06","05:08:27","AMMA06",69785.000,"cc",28284.457,6.00,2828.446,1,6,0.100,32896.000,0.200,28468.000,0.300,6129.000,0.500,1352.000,1.000,939.000,5.000,1.000
"07/02/06","05:08:33","AMMA06",69613.000,"cc",28337.537,6.00,2833.754,1,6,0.100,32551.000,0.200,28621.000,0.300,6093.000,0.500,1355.000,1.000,993.000,5.000,0
"07/02/06","05:08:39","AMMA06",69240.000,"cc",28363.236,6.00,2836.324,1,6,0.100,32284.000,0.200,28522.000,0.300,6129.000,0.500,1327.000,1.000,976.000,5.000,2.000
"07/02/06","05:08:45","AMMA06",69211.000,"cc",28282.740,6.00,2828.274,1,6,0.100,32318.000,0.200,28367.000,0.300,6223.000,0.500,1325.000,1.000,977.000,5.000,1.000
"07/02/06","05:08:51","AMMA06",69886.000,"cc",28330.732,6.00,2833.074,1,6,0.100,32692.000,0.200,28580.000,0.300,6243.000,0.500,1418.000,1.000,952.000,5.000,1.000
"07/02/06","05:08:57","AMMA06",69108.000,"cc",28319.565,6.00,2831.957,1,6,0.100,32478.000,0.200,28340.000,0.300,5973.000,0.500,1350.000,1.000,967.000,5.000,0
"07/02/06","05:09:03","AMMA06",69256.000,"cc",28339.213,6.00,2833.921,1,6,0.100,32164.000,0.200,28422.000,0.300,6231.000,0.500,1474.000,1.000,965.000,5.000,0
"07/02/06","05:09:09","AMMA06",69300.000,"cc",28314.783,6.00,2831.479,1,6,0.100,32398.000,0.200,28419.000,0.300,6215.000,0.500,1332.000,1.000,935.000,5.000,1.000
"07/02/06","05:09:15","AMMA06",68778.000,"cc",28292.592,6.00,2829.259,1,6,0.100,32038.000,0.200,28229.000,0.300,6159.000,0.500,1441.000,1.000,911.000,5.000,0
"07/02/06","05:09:21","AMMA06",69364.000,"cc",28273.561,6.00,2827.356,1,6,0.100,32612.000,0.200,28425.000,0.300,6097.000,0.500,1322.000,1.000,907.000,5.000,1.000
"07/02/06","05:09:27","AMMA06",69060.000,"cc",28330.289,6.00,2833.029,1,6,0.100,32621.000,0.200,28216.000,0.300,6024.000,0.500,1292.000,1.000,906.000,5.000,1.000
"07/02/06","05:09:33","AMMA06",68881.000,"cc",28306.088,6.00,2830.609,1,6,0.100,32384.000,0.200,28241.000,0.300,5989.000,0.500,1309.000,1.000,958.000,5.000,0
"07/02/06","05:09:39","AMMA06",69053.000,"cc",28330.717,6.00,2833.072,1,6,0.100,32336.000,0.200,28376.000,0.300,6079.000,0.500,1349.000,1.000,913.000,5.000,0
"07/02/06","05:09:45","AMMA06",69156.000,"cc",28364.930,6.00,2836.493,1,6,0.100,32385.000,0.200,28419.000,0.300,6034.000,0.500,1412.000,1.000,905.000,5.000,1.000
"07/02/06","05:09:51","AMMA06",69208.000,"cc",28305.748,6.00,2830.575,1,6,0.100,32647.000,0.200,28140.000,0.300,6121.000,0.500,1379.000,1.000,921.000,5.000,0
"07/02/06","05:09:57","AMMA06",68891.000,"cc",28379.490,6.00,2837.949,1,6,0.100,32445.000,0.200,28066.000,0.300,6037.000,0.500,1423.000,1.000,920.000,5.000,0
"07/02/06","05:10:03","AMMA06",68032.000,"cc",28261.611,6.00,2826.161,1,6,0.100,32349.000,0.200,27471.000,0.300,5904.000,0.500,1359.000,1.000,948.000,5.000,1.000
"07/02/06","05:10:09","AMMA06",68687.000,"cc",28339.057,6.00,2833.906,1,6,0.100,32171.000,0.200,28306.000,0.300,5856.000,0.500,1429.000,1.000,925.000,5.000,0
"07/02/06","05:10:15","AMMA06",68688.000,"cc",28289.096,6.00,2828.910,1,6,0.100,32267.000,0.200,28118.000,0.300,5921.000,0.500,1417.000,1.000,965.000,5.000,0
"07/02/06","05:10:21","AMMA06",68955.000,"cc",28328.148,6.00,2832.815,1,6,0.100,32434.000,0.200,28468.000,0.300,5708.000,0.500,1399.000,1.000,946.000,5.000,0
"07/02/06","05:10:27","AMMA06",68220.000,"cc",28365.264,6.00,2836.527,1,6,0.100,32434.000,0.200,27746.000,0.300,5774.000,0.500,1296.000,1.000,968.000,5.000,2.000
"07/02/06","05:10:33","AMMA06",68727.000,"cc",28307.557,6.00,2830.756,1,6,0.100,32541.000,0.200,28040.000,0.300,5845.000,0.500,1362.000,1.000,939.000,5.000,0
"07/02/06","05:10:39","AMMA06",68721.000,"cc",28275.150,6.00,2827.515,1,6,0.100,32598.000,0.200,28141.000,0.300,5722.000,0.500,1346.000,1.000,912.000,5.000,2.000
"07/02/06","05:10:45","AMMA06",68610.000,"cc",28332.242,6.00,2833.224,1,6,0.100,32464.000,0.200,28040.000,0.300,5846.000,0.500,1358.000,1.000,902.000,5.000,0
"07/02/06","05:10:51","AMMA06",68109.000,"cc",28301.416,6.00,2830.142,1,6,0.100,32333.000,0.200,27724.000,0.300,5775.000,0.500,1400.000,1.000,877.000,5.000,0
"07/02/06","05:10:57","AMMA06",67816.000,"cc",28305.332,6.00,2830.533,1,6,0.100,31965.000,0.200,27863.000,0.300,5725.000,0.500,1362.000,1.000,901.000,5.000,0
"07/02/06","05:11:03","AMMA06",67917.000,"cc",28305.117,6.00,2830.512,1,6,0.100,32351.000,0.200,27602.000,0.300,5666.000,0.500,1388.000,1.000,910.000,5.000,0
"07/02/06","05:11:09","AMMA06",67919.000,"cc",28322.910,6.00,2832.291,1,6,0.100,32360.000,0.200,27664.000,0.300,5599.000,0.500,1365.000,1.000,931.000,5.000,0
"07/02/06","05:11:15","AMMA06",67900.000,"cc",28361.549,6.00,2836.155,1,6,0.100,31847.000,0.200,27900.000,0.300,5876.000,0.500,1371.000,1.000,905.000,5.000,1.000
"07/02/06","05:11:21","AMMA06",67814.000,"cc",28296.908,6.00,2829.691,1,6,0.100,31709.000,0.200,28147.000,0.300,5788.000,0.500,1276.000,1.000,893.000,5.000,1.000
"07/02/06","05:11:27","AMMA06",67809.000,"cc",28297.865,6.00,2829.787,1,6,0.100,31888.000,0.200,27807.000,0.300,5818.000,0.500,1326.000,1.000,969.000,5.000,1.000
"07/02/06","05:11:33","AMMA06",67610.000,"cc",28324.746,6.00,2832.475,1,6,0.100,31659.000,0.200,27848.000,0.300,5842.000,0.500,1337.000,1.000,922.000,5.000,2.000
"07/02/06","05:11:39","AMMA06",67962.000,"cc",28353.514,6.00,2835.352,1,6,0.100,32150.000,0.200,27632.000,0.300,5863.000,0.500,1397.000,1.000,920.000,5.000,0
"07/02/06","05:11:45","AMMA06",67573.000,"cc",28330.815,6.00,2833.082,1,6,0.100,31823.000,0.200,27658.000,0.300,5757.000,0.500,1353.000,1.000,981.000,5.000,1.000
"07/02/06","05:11:51","AMMA06",68429.000,"cc",28292.869,6.00,2829.287,1,6,0.100,32106.000,0.200,28272.000,0.300,5854.000,0.500,1288.000,1.000,907.000,5.000,2.000
"07/02/06","05:11:57","AMMA06",69904.000,"cc",28275.688,6.00,2827.569,1,6,0.100,33292.000,0.200,28261.000,0.300,6028.000,0.500,1336.000,1.000,987.000,5.000,0
"07/02/06","05:12:03","AMMA06",70472.000,"cc",28321.352,6.00,2832.135,1,6,0.100,33762.000,0.200,28368.000,0.300,6006.000,0.500,1365.000,1.000,970.000,5.000,1.000
"07/02/06","05:12:09","AMMA06",70224.000,"cc",28357.793,6.00,2835.780,1,6,0.100,33638.000,0.200,28353.000,0.300,5988.000,0.500,1341.000,1.000,903.000,5.000,1.000
"07/02/06","05:12:15","AMMA06",69956.000,"cc",28336.305,6.00,2833.631,1,6,0.100,33233.000,0.200,28511.000,0.300,5965.000,0.500,1341.000,1.000,904.000,5.000,2.000
"07/02/06","05:12:21","AMMA06",69332.000,"cc",28287.686,6.00,2828.769,1,6,0.100,32938.000,0.200,28052.000,0.300,6004.000,0.500,1388.000,1.000,950.000,5.000,0
"07/02/06","05:12:27","AMMA06",69769.000,"cc",28292.533,6.00,2829.253,1,6,0.100,33019.000,0.200,28261.000,0.300,6141.000,0.500,1398.000,1.000,949.000,5.000,1.000
"07/02/06","05:12:33","AMMA06",70514.000,"cc",28312.662,6.00,2831.266,1,6,0.100,33159.000,0.200,28741.000,0.300,6262.000,0.500,1362.000,1.000,990.000,5.000,0
"07/02/06","05:12:39","AMMA06",70396.000,"cc",28274.305,6.00,2827.431,1,6,0.100,33303.000,0.200,28636.000,0.300,6176.000,0.500,1342.000,1.000,939.000,5.000,0
"07/02/06","05:12:45","AMMA06",69892.000,"cc",28367.604,6.00,2836.761,1,6,0.100,32939.000,0.200,28367.000,0.300,6263.000,0.500,1360.000,1.000,961.000,5.000,2.000
"07/02/06","05:12:51","AMMA06",70191.000,"cc",28336.648,6.00,2833.665,1,6,0.100,33011.000,0.200,28627.000,0.300,6202.000,0.500,1389.000,1.000,961.000,5.000,1.000
"07/02/06","05:12:57","AMMA06",69451.000,"cc",28277.090,6.00,2827.709,1,6,0.100,32547.000,0.200,28361.000,0.300,6220.000,0.500,1368.000,1.000,954.000,5.000,1.000
"07/02/06","05:13:03","AMMA06",70022.000,"cc",28319.014,6.00,2831.902,1,6,0.100,32976.000,0.200,28524.000,0.300,6282.000,0.500,1336.000,1.000,904.000,5.000,0
"07/02/06","05:13:09","AMMA06",69906.000,"cc",28300.213,6.00,2830.022,1,6,0.100,32570.000,0.200,28793.000,0.300,6240.000,0.500,1345.000,1.000,958.000,5.000,0
"07/02/06","05:13:15","AMMA06",69814.000,"cc",28342.246,6.00,2834.225,1,6,0.100,32631.000,0.200,28601.000,0.300,6265.000,0.500,1373.000,1.000,944.000,5.000,0
"07/02/06","05:13:21","AMMA06",70085.000,"cc",28303.672,6.00,2830.367,1,6,0.100,32813.000,0.200,28763.000,0.300,6241.000,0.500,1346.000,1.000,920.000,5.000,2.000
"07/02/06","05:13:27","AMMA06",69412.000,"cc",28322.959,6.00,2832.296,1,6,0.100,32242.000,0.200,28636.000,0.300,6202.000,0.500,1384.000,1.000,948.000,5.000,0
"07/02/06","05:13:33","AMMA06",69733.000,"cc",28337.926,6.00,2833.793,1,6,0.100,32418.000,0.200,28669.000,0.300,6314.000,0.500,1358.000,1.000,973.000,5.000,1.000
"07/02/06","05:13:39","AMMA06",69646.000,"cc",28355.098,6.00,2835.510,1,6,0.100,32218.000,0.200,28801.000,0.300,6260.000,0.500,1440.000,1.000,925.000,5.000,2.000
"07/02/06","05:13:45","AMMA06",69685.000,"cc",28318.795,6.00,2831.880,1,6,0.100,32532.000,0.200,28587.000,0.300,6325.000,0.500,1269.000,1.000,971.000,5.000,1.000
"07/02/06","05:13:51","AMMA06",69762.000,"cc",28284.145,6.00,2828.415,1,6,0.100,32544.000,0.200,28655.000,0.300,6280.000,0.500,1366.000,1.000,917.000,5.000,0
"07/02/06","05:13:57","AMMA06",69914.000,"cc",28283.162,6.00,2828.316,1,6,0.100,32443.000,0.200,28778.000,0.300,6312.000,0.500,1372.000,1.000,1009.000,5.000,0